QPF
0.00 0.00 0.00 0.00 0.00 0.00 0.00 0.00 0.00 0.00 0.00 0.00 0.00 0.00 0.00 0.00 0.00 0.00 0.00 0.00 0.00 0.00 0.00 0.00 0.00 0.00 0.00 0.00 0.00 0.00 0.00 0.00 0.00 0.00 0.00 0.00 0.00 0.00 0.00 0.00 0.00 0.00
0.00 0.00 0.00 0.00 0.00 0.00 0.00 0.00 0.00 0.00 0.00 0.00 0.00 0.00 0.00 0.00 0.00 0.00 0.00 0.00 0.00 0.00 0.00 0.00 0.00 0.00 0.00 0.00 0.00 0.00 0.00 0.00 0.00 0.00 0.00 0.00 0.00 0.00 0.00 0.00 0.00 0.00
0.00 0.00 0.00 0.00 0.00 0.00 0.00 0.00 0.00 0.00 0.00 0.00 0.00 0.00 0.00 0.00 0.00 0.00 0.00 0.00 0.00 0.00 0.00 0.00 0.00 0.00 0.00 0.00 0.00 0.00 0.00 0.00 0.00 0.00 0.00 0.00 0.00 0.00 0.00 0.00 0.00 0.00
0.00 0.00 0.00 0.00 0.00 0.00 0.00 0.00 0.00 0.00 0.00 0.00 0.00 0.00 0.00 0.00 0.00 0.00 0.00 0.00 0.00 0.00 0.00 0.00 0.00 0.00 0.00 0.00 0.00 0.00 0.00 0.00 0.00 0.00 0.00 0.00 0.00 0.00 0.00 0.00 0.00 0.00
0.00 0.00 0.00 0.00 0.00 0.00 0.00 0.00 0.00 0.00 0.00 0.00 0.00 0.00 0.00 0.00 0.00 0.00 0.00 0.00 0.00 0.00 0.00 0.00 0.00 0.00 0.00 0.00 0.00 0.00 0.00 0.00 0.00 0.00 0.00 0.00 0.00 0.00 0.00 0.00 0.00 0.00
0.00 0.00 0.00 0.00 0.00 0.00 0.00 0.00 0.00 0.00 0.00 0.00 0.00 0.00 0.00 0.00 0.00 0.00 0.00 0.00 0.00 0.00 0.00 0.00 0.00 0.00 0.00 0.00 0.00 0.00 0.00 0.00 0.00 0.00 0.00 0.00 0.00 0.00 0.00 0.00 0.00 0.00
0.00 0.00 0.00 0.00 0.00 0.00 0.00 0.00 0.00 0.00 0.00 0.00 0.00 0.00 0.00 0.00 0.00 0.00 0.00 0.00 0.00 0.00 0.00 0.00 0.00 0.00 0.00 0.00 0.00 0.00 0.00 0.00 0.00 0.00 0.00 0.00 0.00 0.00 0.00 0.00 0.00 0.00
0.00 0.00 0.00 0.00 0.00 0.00 0.00 0.00 0.00 0.00 0.00 0.00 0.00 0.00 0.00 0.00 0.00 0.00 0.00 0.00 0.00 0.00 0.00 0.00 0.00 0.00 0.00 0.00 0.00 0.00 0.00 0.00 0.00 0.00 0.00 0.00 0.00 0.00 0.00 0.00 0.00 0.00
0.00 0.00 0.00 0.00 0.00 0.00 0.00 0.00 0.00 0.00 0.00 0.00 0.00 0.00 0.00 0.00 0.00 0.00 0.00 0.00 0.00 0.00 0.00 0.00 0.00 0.00 0.00 0.00 0.00 0.00 0.00 0.00 0.00 0.00 0.00 0.00 0.00 0.00 0.00 0.00 0.00 0.00
0.00 0.00 0.00 0.00 0.00 0.00 0.00 0.00 0.00 0.00 0.00 0.00 0.00 0.00 0.00 0.00 0.00 0.00 0.00 0.00 0.00 0.00 0.00 0.00 0.00 0.00 0.00 0.00 0.00 0.00 0.00 0.00 0.00 0.00 0.00 0.00 0.00 0.00 0.00 0.00 0.00 0.00
0.00 0.00 0.00 0.00 0.00 0.00 0.00 0.00 0.00 0.00 0.00 0.00 0.00 0.00 0.00 0.00 0.00 0.00 0.00 0.00 0.00 0.00 0.00 0.00 0.00 0.00 0.00 0.00 0.00 0.00 0.00 0.00 0.00 0.00 0.00 0.00 0.00 0.00 0.00 0.00 0.00 0.00
0.00 0.00 0.00 0.00 0.00 0.00 0.00 0.00 0.01 0.00 0.00 0.00 0.00 0.00 0.00 0.00 0.00 0.00 0.00 0.00 0.00 0.00 0.00 0.00 0.00 0.00 0.00 0.00 0.00 0.00 0.00 0.00 0.00 0.00 0.00 0.00 0.00 0.00 0.00 0.00 0.00 0.00
0.00 0.00 0.00 0.00 0.00 0.00 0.00 0.00 0.00 0.00 0.00 0.00 0.00 0.00 0.00 0.00 0.00 0.00 0.00 0.00 0.00 0.00 0.00 0.00 0.00 0.00 0.00 0.00 0.00 0.00 0.00 0.00 0.00 0.00 0.00 0.00 0.00 0.00 0.00 0.00 0.00 0.00
0.00 0.00 0.00 0.00 0.00 0.00 0.00 0.00 0.00 0.00 0.00 0.00 0.00 0.00 0.00 0.00 0.00 0.00 0.00 0.00 0.00 0.00 0.00 0.00 0.00 0.00 0.00 0.00 0.00 0.00 0.00 0.00 0.00 0.00 0.00 0.00 0.00 0.00 0.00 0.00 0.00 0.00
0.00 0.00 0.00 0.00 0.00 0.00 0.00 0.00 0.00 0.00 0.00 0.00 0.00 0.00 0.00 0.00 0.00 0.00 0.00 0.00 0.00 0.00 0.00 0.00 0.00 0.00 0.00 0.00 0.00 0.00 0.00 0.00 0.00 0.00 0.00 0.00 0.00 0.00 0.00 0.00 0.00 0.00
0.00 0.00 0.00 0.00 0.00 0.00 0.00 0.00 0.00 0.00 0.00 0.00 0.00 0.00 0.00 0.00 0.00 0.00 0.00 0.00 0.00 0.00 0.00 0.00 0.00 0.00 0.00 0.00 0.00 0.00 0.00 0.00 0.00 0.00 0.00 0.00 0.00 0.00 0.00 0.00 0.00 0.00
0.00 0.00 0.00 0.00 0.00 0.00 0.00 0.00 0.00 0.00 0.00 0.00 0.00 0.00 0.00 0.00 0.00 0.00 0.00 0.00 0.00 0.00 0.00 0.00 0.00 0.00 0.00 0.00 0.00 0.00 0.00 0.00 0.00 0.00 0.00 0.00 0.00 0.00 0.00 0.00 0.00 0.00
0.00 0.00 0.00 0.00 0.00 0.00 0.00 0.00 0.00 0.00 0.00 0.00 0.00 0.00 0.00 0.00 0.00 0.00 0.00 0.00 0.00 0.00 0.00 0.00 0.00 0.00 0.00 0.00 0.00 0.00 0.00 0.00 0.00 0.00 0.00 0.00 0.00 0.00 0.00 0.00 0.00 0.00
0.00 0.00 0.00 0.00 0.00 0.00 0.00 0.00 0.00 0.00 0.00 0.00 0.00 0.00 0.00 0.00 0.00 0.00 0.00 0.00 0.00 0.00 0.00 0.00 0.00 0.00 0.00 0.00 0.00 0.00 0.00 0.00 0.00 0.00 0.00 0.00 0.00 0.00 0.00 0.00 0.00 0.00
0.00 0.00 0.00 0.00 0.00 0.00 0.00 0.00 0.00 0.00 0.00 0.00 0.00 0.00 0.00 0.00 0.00 0.00 0.00 0.00 0.00 0.00 0.00 0.00 0.00 0.00 0.00 0.00 0.00 0.00 0.00 0.00 0.00 0.00 0.00 0.00 0.00 0.00 0.00 0.00 0.00 0.00
0.00 0.00 0.00 0.00 0.00 0.00 0.00 0.00 0.00 0.00 0.00 0.00 0.00 0.00 0.00 0.00 0.00 0.00 0.00 0.00 0.00 0.00 0.00 0.00 0.00 0.00 0.00 0.00 0.00 0.00 0.00 0.00 0.00 0.00 0.00 0.00 0.00 0.00 0.00 0.00 0.00 0.00
0.00 0.00 0.00 0.00 0.00 0.00 0.00 0.00 0.00 0.00 0.00 0.00 0.00 0.00 0.00 0.00 0.00 0.00 0.00 0.00 0.00 0.00 0.00 0.00 0.00 0.00 0.01 0.00 0.00 0.00 0.00 0.00 0.00 0.00 0.00 0.00 0.00 0.00 0.00 0.00 0.00 0.00
0.00 0.00 0.00 0.00 0.00 0.00 0.00 0.00 0.00 0.00 0.00 0.00 0.00 0.00 0.00 0.00 0.00 0.00 0.00 0.00 0.00 0.00 0.00 0.00 0.00 0.02 0.01 0.01 0.01 0.01 0.00 0.00 0.00 0.00 0.00 0.00 0.00 0.01 0.03 0.00 0.00 0.00
0.01 0.02 0.01 0.01 0.00 0.01 0.00 0.00 0.00 0.00 0.00 0.00 0.01 0.00 0.00 0.00 0.00 0.00 0.00 0.00 0.00 0.00 0.00 0.02 0.01 0.02 0.01 0.00 0.00 0.00 0.00 0.00 0.00 0.00 0.00 0.00 0.00 0.00 0.00 0.00 0.00 0.01
0.01 0.01 0.01 0.02 0.01 0.02 0.01 0.01 0.01 0.01 0.01 0.01 0.00 0.03 0.00 0.00 0.00 0.00 0.00 0.00 0.00 0.00 0.01 0.00 0.00 0.01 0.01 0.00 0.00 0.00 0.00 0.00 0.00 0.00 0.00 0.00 0.01 0.01 0.02 0.00 0.01 0.01
0.01 0.01 0.01 0.02 0.02 0.02 0.01 0.01 0.01 0.01 0.01 0.01 0.00 0.00 0.00 0.00 0.00 0.00 0.00 0.00 0.00 0.00 0.00 0.01 0.01 0.01 0.03 0.00 0.00 0.00 0.00 0.00 0.04 0.00 0.00 0.02 0.04 0.02 0.00 0.00 0.02 0.01
MSLP
1008.06 1008.10 1008.22 1008.54 1008.78 1008.98 1009.42 1009.90 1010.18 1010.46 1010.70 1011.10 1011.34 1011.62 1012.02 1012.54 1013.42 1013.90 1014.26 1014.78 1015.02 1015.34 1015.66 1015.98 1016.38 1016.82 1017.18 1017.62 1017.94 1018.30 1018.62 1018.90 1019.18 1019.42 1019.58 1019.66 1019.70 1019.82 1019.94 1020.10 1020.34 1020.46
1008.22 1008.30 1008.22 1008.30 1008.50 1008.58 1008.70 1009.02 1009.46 1009.78 1010.14 1010.46 1010.70 1011.22 1011.78 1012.30 1012.66 1013.18 1013.66 1014.10 1014.58 1014.86 1015.26 1015.70 1016.06 1016.34 1016.74 1017.18 1017.58 1017.94 1018.38 1018.70 1018.94 1019.30 1019.50 1019.58 1019.66 1019.86 1019.90 1020.14 1020.34 1020.66
1008.26 1008.38 1008.38 1008.14 1007.90 1008.14 1008.58 1009.06 1009.42 1009.70 1009.86 1010.02 1010.54 1010.90 1011.18 1011.62 1012.22 1012.66 1013.14 1013.58 1013.98 1014.42 1014.86 1015.26 1015.66 1016.02 1016.34 1016.74 1017.14 1017.54 1017.90 1018.30 1018.66 1019.06 1019.34 1019.46 1019.66 1019.82 1020.02 1020.34 1020.54 1020.58
1007.90 1007.94 1008.06 1008.14 1008.34 1008.50 1008.86 1009.18 1009.34 1009.50 1009.74 1010.02 1009.98 1010.26 1010.82 1011.30 1011.74 1012.34 1012.78 1013.22 1013.58 1013.98 1014.38 1014.82 1015.14 1015.58 1015.98 1016.34 1016.78 1017.18 1017.42 1017.82 1018.14 1018.70 1019.06 1019.38 1019.62 1019.78 1020.06 1020.34 1020.58 1020.78
1007.50 1007.78 1007.86 1007.98 1008.30 1008.66 1008.98 1009.18 1009.30 1009.38 1009.46 1009.46 1010.02 1010.30 1010.54 1010.94 1011.42 1011.86 1012.26 1012.70 1013.06 1013.50 1013.94 1014.34 1014.78 1015.14 1015.58 1016.02 1016.34 1016.70 1017.14 1017.50 1017.94 1018.34 1018.66 1018.90 1019.22 1019.46 1019.78 1020.10 1020.30 1020.50
1007.62 1007.54 1007.62 1007.90 1008.14 1008.42 1008.66 1008.82 1009.10 1009.54 1009.82 1010.02 1009.74 1010.02 1010.22 1010.62 1010.90 1011.18 1011.58 1012.02 1012.42 1012.82 1013.30 1013.78 1014.22 1014.66 1015.10 1015.46 1015.94 1016.14 1016.54 1017.02 1017.46 1017.90 1018.26 1018.50 1018.90 1019.26 1019.50 1019.78 1019.98 1020.22
1008.06 1007.82 1007.82 1008.10 1008.30 1008.34 1008.42 1008.54 1008.78 1008.94 1009.18 1009.38 1009.94 1009.90 1009.94 1010.14 1010.34 1010.66 1011.06 1011.46 1011.90 1012.26 1012.66 1013.06 1013.50 1013.98 1014.42 1014.86 1015.30 1015.66 1016.06 1016.38 1016.94 1017.34 1017.62 1018.02 1018.50 1018.94 1019.22 1019.50 1019.74 1019.98
1008.82 1008.78 1008.46 1008.22 1008.10 1008.18 1008.18 1008.26 1008.38 1008.38 1008.50 1009.02 1009.06 1009.34 1009.82 1009.74 1009.86 1010.14 1010.50 1010.90 1011.26 1011.62 1012.06 1012.46 1012.86 1013.18 1013.62 1013.98 1014.38 1014.86 1015.34 1015.78 1016.22 1016.62 1016.94 1017.42 1017.94 1018.30 1018.70 1019.14 1019.50 1019.78
1008.46 1008.50 1008.66 1008.54 1008.26 1008.02 1007.94 1007.86 1007.86 1008.02 1008.30 1008.38 1008.42 1008.74 1009.02 1009.22 1009.38 1009.66 1010.02 1010.42 1010.74 1011.10 1011.50 1011.94 1012.18 1012.50 1012.82 1013.10 1013.38 1013.70 1014.18 1014.78 1015.22 1015.62 1015.98 1016.46 1017.02 1017.38 1017.94 1018.58 1019.14 1019.42
1008.02 1008.18 1008.38 1008.30 1008.18 1007.74 1007.50 1007.22 1007.34 1007.50 1007.74 1007.90 1007.98 1008.46 1008.78 1008.98 1009.26 1009.30 1009.50 1009.82 1010.14 1010.58 1010.94 1011.18 1011.54 1011.74 1012.02 1012.22 1012.42 1012.82 1013.26 1013.78 1014.34 1014.82 1015.10 1015.42 1015.82 1016.42 1017.14 1017.78 1018.18 1018.82
1007.62 1007.82 1007.94 1007.90 1007.78 1007.42 1007.06 1006.94 1007.18 1007.26 1007.50 1007.50 1007.74 1007.94 1008.06 1008.58 1008.78 1008.94 1009.10 1009.22 1009.34 1009.58 1009.94 1010.30 1010.54 1010.98 1011.38 1011.78 1012.06 1012.30 1012.66 1013.18 1013.74 1014.18 1014.54 1014.82 1015.22 1015.66 1016.26 1016.86 1017.42 1017.74
1007.42 1007.54 1007.50 1007.38 1007.18 1006.94 1006.74 1006.78 1006.94 1007.02 1007.10 1007.30 1007.38 1007.34 1007.66 1007.86 1008.02 1008.34 1008.38 1008.54 1008.74 1008.98 1009.30 1009.70 1010.22 1010.66 1010.90 1011.10 1011.46 1011.90 1012.38 1012.86 1013.34 1013.78 1014.02 1014.34 1014.74 1015.18 1015.62 1016.14 1016.54 1017.06
1007.06 1006.90 1006.82 1006.74 1006.66 1006.46 1006.42 1006.54 1006.54 1006.58 1006.70 1006.70 1006.94 1007.02 1007.14 1007.42 1007.82 1008.02 1007.86 1007.86 1008.10 1008.54 1008.86 1009.22 1009.66 1010.06 1010.42 1010.86 1011.30 1011.58 1011.82 1012.22 1012.82 1013.34 1013.66 1013.94 1014.22 1014.54 1015.02 1015.50 1015.94 1016.38
1006.46 1006.38 1006.38 1006.26 1006.18 1006.18 1006.22 1006.18 1006.18 1006.22 1006.18 1006.22 1006.58 1006.62 1006.62 1006.78 1007.10 1007.50 1007.66 1007.78 1007.82 1008.14 1008.50 1009.02 1009.42 1009.66 1009.94 1010.26 1010.66 1010.98 1011.38 1011.66 1011.98 1012.42 1012.98 1013.46 1013.86 1014.26 1014.66 1015.06 1015.50 1015.94
1006.22 1006.10 1005.98 1005.86 1005.78 1005.82 1005.98 1006.06 1005.98 1005.90 1005.98 1006.06 1006.10 1006.10 1006.14 1006.22 1006.58 1007.18 1007.58 1007.66 1007.74 1007.90 1008.18 1008.58 1008.90 1009.06 1009.30 1009.66 1010.18 1010.70 1011.02 1011.30 1011.58 1011.90 1012.26 1012.82 1013.42 1013.90 1014.30 1014.78 1015.30 1015.74
1006.58 1006.30 1006.06 1005.82 1005.82 1005.82 1005.70 1005.66 1005.74 1005.74 1005.70 1005.66 1005.66 1005.82 1006.10 1006.30 1006.58 1006.82 1007.02 1007.02 1007.26 1007.54 1007.82 1008.14 1008.26 1008.38 1008.58 1008.86 1009.22 1009.62 1010.22 1010.78 1011.38 1011.86 1012.14 1012.42 1012.86 1013.50 1014.06 1014.46 1014.86 1015.34
1007.02 1006.66 1006.42 1006.26 1006.02 1005.82 1005.62 1005.54 1005.42 1005.38 1005.38 1005.34 1005.54 1005.74 1005.86 1006.10 1006.42 1006.62 1006.46 1006.34 1006.46 1006.82 1007.22 1007.42 1007.62 1007.82 1008.14 1008.42 1008.66 1009.10 1009.70 1010.22 1010.66 1011.26 1011.86 1012.26 1012.66 1012.98 1013.34 1013.90 1014.50 1015.02
1007.58 1007.18 1006.86 1006.50 1006.18 1005.90 1005.58 1005.42 1005.34 1005.30 1005.22 1005.18 1005.34 1005.54 1005.70 1005.90 1005.94 1005.90 1006.18 1006.18 1006.02 1006.18 1006.38 1006.58 1006.94 1007.34 1007.82 1008.06 1008.34 1008.66 1009.10 1009.66 1010.18 1010.70 1011.18 1011.54 1011.98 1012.46 1012.90 1013.38 1013.90 1014.50
1007.42 1007.34 1006.98 1006.46 1006.02 1005.66 1005.50 1005.42 1005.30 1005.14 1005.06 1005.06 1005.02 1005.06 1005.42 1005.62 1005.58 1005.90 1005.78 1005.66 1005.58 1005.50 1005.66 1006.02 1006.46 1006.82 1007.26 1007.58 1007.86 1008.10 1008.54 1009.22 1009.86 1010.30 1010.74 1010.98 1011.30 1011.74 1012.18 1012.74 1013.38 1014.02
1006.94 1006.70 1006.42 1006.14 1005.86 1005.58 1005.38 1005.18 1005.10 1004.94 1004.70 1004.70 1004.82 1005.14 1005.34 1005.42 1005.62 1005.62 1005.58 1005.54 1005.34 1005.26 1005.38 1005.62 1005.98 1006.38 1006.74 1007.14 1007.50 1007.82 1008.22 1008.78 1009.54 1010.02 1010.38 1010.66 1010.94 1011.30 1011.70 1012.14 1012.58 1013.06
1006.94 1006.70 1006.42 1006.06 1005.82 1005.62 1005.34 1005.14 1005.02 1004.90 1004.78 1004.74 1004.82 1004.82 1004.98 1005.14 1005.26 1005.42 1005.38 1005.34 1005.34 1005.34 1005.38 1005.42 1005.58 1006.02 1006.34 1006.70 1007.06 1007.46 1007.90 1008.50 1009.42 1009.94 1010.30 1010.66 1010.94 1011.22 1011.46 1011.78 1012.22 1012.54
1006.82 1006.62 1006.42 1006.18 1005.94 1005.74 1005.54 1005.26 1005.18 1005.10 1004.90 1004.78 1004.86 1004.94 1004.98 1005.10 1005.22 1005.26 1005.26 1005.26 1005.22 1005.26 1005.26 1005.22 1005.42 1005.66 1005.86 1006.18 1006.58 1007.06 1007.54 1008.26 1009.14 1009.70 1010.10 1010.42 1010.70 1010.86 1011.26 1011.66 1012.18 1012.50
1006.42 1006.34 1006.18 1005.98 1005.78 1005.62 1005.42 1005.34 1005.26 1005.10 1005.02 1004.94 1004.86 1004.74 1004.78 1004.82 1004.82 1004.82 1004.82 1004.90 1004.98 1005.06 1005.14 1005.18 1005.46 1005.42 1005.50 1005.74 1006.06 1006.50 1007.06 1007.90 1008.74 1009.46 1009.94 1010.22 1010.34 1010.58 1010.90 1011.26 1011.70 1012.10
1006.98 1006.74 1006.30 1005.82 1005.66 1005.54 1005.30 1005.18 1005.14 1005.06 1004.90 1004.82 1004.74 1004.50 1004.46 1004.38 1004.50 1004.62 1004.70 1004.74 1004.78 1004.82 1004.86 1005.06 1005.26 1005.30 1005.22 1005.34 1005.62 1005.86 1006.34 1007.34 1008.30 1009.06 1009.78 1010.30 1010.70 1010.90 1010.98 1011.02 1011.22 1011.58
1007.02 1006.66 1006.34 1006.06 1005.74 1005.46 1005.30 1005.14 1004.98 1004.90 1004.70 1004.74 1004.66 1004.58 1004.42 1004.38 1004.50 1004.54 1004.58 1004.62 1004.58 1004.66 1004.86 1005.02 1005.22 1005.34 1005.14 1005.14 1005.30 1005.58 1006.10 1007.18 1007.94 1008.58 1009.22 1009.66 1010.10 1010.54 1010.74 1010.82 1010.98 1011.22
1006.86 1006.54 1006.22 1006.10 1005.86 1005.58 1005.42 1005.30 1005.18 1005.10 1004.90 1004.78 1004.70 1004.70 1004.66 1004.66 1004.66 1004.54 1004.42 1004.42 1004.46 1004.58 1004.74 1004.82 1005.10 1005.30 1005.06 1004.90 1004.94 1005.22 1005.74 1006.90 1007.58 1008.10 1008.62 1009.22 1009.74 1010.06 1010.34 1010.58 1010.62 1010.82
Thickness
5630 5629 5629 5627 5624 5623 5620 5618 5616 5613 5610 5607 5605 5602 5597 5593 5588 5584 5580 5577 5575 5572 5571 5568 5565 5562 5559 5556 5553 5550 5548 5545 5543 5540 5538 5538 5537 5536 5536 5534 5533 5531
5621 5621 5621 5621 5620 5619 5618 5615 5612 5609 5607 5604 5601 5598 5593 5589 5585 5582 5578 5574 5572 5569 5567 5563 5561 5558 5555 5552 5549 5545 5543 5539 5536 5534 5532 5531 5530 5529 5528 5527 5525 5524
5612 5612 5612 5613 5614 5613 5610 5608 5605 5603 5601 5598 5596 5593 5590 5587 5582 5579 5575 5572 5570 5566 5563 5560 5556 5554 5551 5548 5544 5541 5539 5535 5532 5529 5526 5524 5523 5521 5520 5518 5516 5515
5606 5605 5605 5604 5604 5602 5600 5599 5597 5596 5594 5592 5591 5588 5584 5581 5578 5575 5571 5568 5565 5562 5559 5556 5553 5549 5546 5543 5540 5537 5534 5532 5528 5524 5521 5518 5516 5515 5513 5510 5508 5507
5601 5599 5598 5596 5594 5592 5590 5590 5589 5586 5585 5584 5583 5580 5578 5576 5573 5570 5567 5564 5561 5558 5555 5552 5549 5545 5542 5539 5536 5533 5530 5526 5523 5519 5517 5514 5511 5508 5506 5505 5503 5500
5593 5593 5592 5589 5586 5584 5583 5583 5580 5577 5575 5574 5573 5572 5572 5571 5568 5566 5563 5560 5557 5554 5551 5549 5545 5542 5538 5535 5532 5529 5526 5522 5518 5514 5512 5509 5506 5503 5501 5499 5498 5495
5579 5581 5582 5581 5579 5578 5578 5577 5574 5572 5570 5566 5565 5565 5565 5564 5563 5562 5558 5555 5553 5551 5549 5546 5543 5539 5536 5533 5529 5526 5522 5518 5514 5510 5508 5505 5501 5497 5495 5493 5491 5489
5567 5568 5569 5570 5571 5571 5571 5570 5569 5568 5565 5562 5562 5561 5559 5558 5558 5556 5553 5551 5549 5547 5545 5542 5539 5537 5534 5531 5527 5524 5519 5515 5511 5508 5505 5502 5498 5494 5491 5487 5485 5483
5562 5561 5559 5560 5562 5564 5565 5565 5564 5562 5559 5558 5559 5556 5553 5553 5553 5551 5548 5546 5544 5543 5540 5538 5535 5533 5531 5529 5527 5523 5518 5514 5510 5507 5504 5500 5497 5493 5489 5484 5480 5478
5557 5555 5551 5551 5553 5555 5559 5560 5559 5557 5556 5555 5553 5551 5549 5548 5546 5545 5544 5542 5540 5539 5536 5534 5532 5530 5528 5526 5524 5521 5518 5513 5508 5505 5502 5500 5496 5493 5488 5483 5479 5475
5549 5547 5545 5546 5546 5549 5553 5553 5552 5551 5550 5549 5548 5547 5546 5543 5541 5540 5539 5538 5538 5536 5533 5531 5528 5525 5523 5522 5520 5517 5514 5509 5505 5501 5499 5496 5494 5491 5487 5482 5478 5474
5540 5540 5540 5540 5541 5544 5546 5545 5544 5545 5544 5543 5543 5542 5541 5539 5537 5536 5535 5535 5534 5532 5529 5526 5522 5519 5518 5516 5514 5511 5508 5504 5500 5496 5494 5491 5489 5486 5484 5479 5475 5471
5532 5534 5535 5537 5538 5539 5539 5538 5538 5538 5539 5538 5537 5536 5536 5534 5532 5530 5530 5531 5529 5526 5523 5520 5516 5513 5511 5509 5507 5505 5503 5499 5495 5491 5488 5485 5483 5481 5478 5475 5471 5466
5526 5527 5528 5530 5532 5532 5531 5531 5531 5531 5531 5531 5530 5530 5531 5530 5527 5523 5522 5522 5521 5519 5517 5513 5509 5508 5506 5504 5501 5498 5495 5493 5490 5487 5482 5479 5477 5474 5471 5468 5464 5459
5517 5518 5519 5521 5522 5523 5523 5522 5523 5523 5522 5522 5522 5523 5523 5522 5520 5516 5513 5513 5513 5511 5508 5505 5504 5504 5502 5499 5495 5491 5488 5484 5482 5480 5477 5474 5470 5467 5464 5460 5456 5452
5502 5505 5507 5509 5511 5513 5514 5514 5514 5514 5514 5514 5515 5514 5513 5512 5510 5509 5507 5507 5507 5503 5500 5499 5499 5499 5497 5494 5491 5487 5482 5477 5473 5471 5469 5467 5463 5459 5456 5453 5449 5445
5486 5490 5493 5494 5497 5500 5503 5505 5505 5506 5507 5508 5507 5505 5504 5502 5500 5500 5501 5502 5501 5498 5495 5494 5495 5494 5490 5487 5484 5481 5476 5472 5468 5464 5461 5458 5456 5453 5450 5447 5443 5438
5470 5474 5477 5481 5484 5487 5491 5493 5494 5496 5498 5498 5498 5497 5494 5492 5492 5492 5492 5492 5493 5492 5491 5490 5490 5487 5483 5480 5477 5474 5470 5465 5461 5458 5455 5452 5451 5448 5445 5441 5437 5431
5459 5462 5465 5469 5474 5477 5480 5482 5482 5485 5487 5488 5489 5487 5484 5484 5484 5483 5482 5483 5484 5485 5485 5485 5483 5480 5476 5473 5470 5467 5463 5458 5453 5450 5449 5447 5445 5443 5439 5435 5431 5425
5449 5453 5456 5460 5463 5466 5468 5470 5471 5474 5476 5477 5477 5476 5475 5474 5473 5472 5473 5474 5475 5476 5475 5476 5475 5472 5469 5465 5462 5459 5455 5450 5445 5441 5440 5439 5437 5435 5432 5429 5426 5422
5438 5441 5444 5447 5450 5453 5455 5457 5458 5460 5462 5464 5464 5464 5465 5465 5463 5462 5463 5463 5464 5464 5465 5467 5466 5463 5461 5458 5454 5451 5447 5441 5435 5432 5431 5429 5427 5426 5424 5422 5419 5416
5427 5429 5432 5435 5437 5439 5442 5444 5445 5447 5449 5449 5451 5452 5453 5453 5453 5452 5452 5453 5453 5453 5455 5456 5456 5454 5452 5450 5447 5443 5438 5433 5427 5423 5421 5420 5419 5418 5416 5413 5410 5407
5413 5415 5419 5422 5425 5427 5430 5432 5433 5434 5436 5437 5438 5440 5441 5442 5443 5442 5443 5443 5443 5443 5444 5444 5444 5444 5444 5442 5439 5436 5431 5425 5420 5415 5412 5410 5409 5408 5408 5406 5403 5401
5393 5396 5402 5407 5411 5413 5416 5419 5421 5422 5425 5426 5426 5428 5430 5431 5431 5431 5432 5433 5433 5434 5434 5433 5433 5433 5434 5433 5432 5429 5425 5419 5414 5408 5403 5401 5399 5397 5397 5398 5396 5394
5376 5379 5385 5389 5393 5398 5401 5404 5407 5410 5412 5413 5413 5415 5416 5418 5418 5419 5420 5422 5423 5423 5422 5422 5422 5423 5424 5425 5423 5420 5417 5412 5407 5401 5397 5394 5391 5388 5387 5388 5388 5387
5363 5366 5370 5374 5377 5382 5386 5389 5392 5395 5398 5400 5400 5401 5403 5404 5404 5407 5409 5411 5411 5411 5412 5411 5411 5411 5412 5414 5414 5411 5408 5404 5399 5395 5391 5387 5383 5381 5380 5379 5380 5379